This demonstration page uses our WeatherBlox Daily Observations layout. Learn more.

Left ArrowRight Arrow

Hourly Observations for May 11, 2020

Temp ( °F °C ) Dew Point ( °F °C ) Humidity (%) Winds ( mph kmh ) Pressure ( in mb ) Visibility ( mi km ) Precip ( " mm )
12:51 am 00:51 Clear 64 17.8 50 10 60 60 SE 7 11 29.88 1012 10 16.0934 0 0
1:51 am 01:51 Clear 66 18.9 50 10 56 56 E 7 11 29.86 1011 10 16.0934 0 0
2:51 am 02:51 Clear 64 17.8 49 9.4 58 58 Calm 29.88 1012 10 16.0934 0 0
3:51 am 03:51 Clear 60 15.6 48 8.9 65 65 NNW 7 11 29.88 1012 10 16.0934 0 0
4:51 am 04:51 Clear 60 15.6 49 9.4 67 67 Calm 29.9 1013 10 16.0934 0 0
5:51 am 05:51 Sunny 60 15.6 48 8.9 65 65 Calm 29.91 1013 10 16.0934 0 0
6:51 am 06:51 Sunny 66 18.9 50 10 56 56 Calm 29.91 1013 10 16.0934 0 0
7:51 am 07:51 Sunny 72 22.2 50 10 46 46 Calm 29.9 1013 10 16.0934 0 0
8:51 am 08:51 Sunny 74 23.3 50 10 43 43 Calm 29.9 1013 10 16.0934 0 0
9:51 am 09:51 Sunny 78 25.6 48 8.9 35 35 Calm 29.89 1012 10 16.0934 0 0
10:51 am 10:51 Sunny 82 27.8 48 8.9 31 31 ESE 6 9 29.86 1011 10 16.0934 0 0
11:51 am 11:51 Sunny 85 29.4 46 7.8 26 26 VRB 5 7 29.83 1010 10 16.0934 0 0
12:51 pm 12:51 Sunny 87 30.6 45 7.2 23 23 undefined N/A 29.8 1009 10 16.0934 0 0
1:51 pm 13:51 Sunny 92 33.3 43 6.1 18 18 NW 8 13 29.75 1007 10 16.0934 0 0
2:51 pm 14:51 Mostly Sunny 92 33.3 41 5 17 17 VRB 5 7 29.72 1006 10 16.0934 0 0
3:51 pm 15:51 Sunny 94 34.4 36 2.2 13 13 NNW 8 13 29.69 1006 10 16.0934 0 0
4:51 pm 16:51 Sunny 94 34.4 27 -2.8 9 9 W 17 28 29.67 1005 10 16.0934 0 0
5:51 pm 17:51 Sunny 92 33.3 29 -1.7 10 10 NW 10 17 29.66 1005 10 16.0934 0 0
6:51 pm 18:51 Sunny 88 31.1 28 -2.2 11 11 WNW 20 31 29.67 1005 10 16.0934 0 0
7:51 pm 19:51 Clear 84 28.9 31 -0.6 15 15 NW 15 24 29.69 1005 10 16.0934 0 0
8:51 pm 20:51 Clear 82 27.8 29 -1.7 14 14 NW 16 26 29.71 1006 10 16.0934 0 0
9:51 pm 21:51 Clear 78 25.6 30 -1.1 17 17 WNW 13 20 29.73 1007 10 16.0934 0 0
10:51 pm 22:51 Clear 75 23.9 27 -2.8 17 17 NW 13 20 29.74 1007 10 16.0934 0 0
11:51 pm 23:51 Clear 73 22.8 26 -3.3 17 17 NW 13 20 29.75 1007 10 16.0934 0 0

Powered by AerisWeather